TimeAKDT,TemperatureF,Dew PointF,Humidity,Sea Level PressureIn,VisibilityMPH,Wind Direction,Wind SpeedMPH,Gust SpeedMPH,PrecipitationIn,Events,Conditions,WindDirDegrees,DateUTC
12:53 AM,55.0,37.0,51,29.21,10.0,NNE,12.7,21.9,N/A,,Overcast,30,2013-09-30 08:53:00
1:53 AM,54.0,37.0,53,29.21,10.0,NNE,13.8,-,N/A,,Overcast,30,2013-09-30 09:53:00
2:53 AM,54.0,37.0,53,29.24,10.0,NNE,12.7,18.4,N/A,,Mostly Cloudy,20,2013-09-30 10:53:00
3:53 AM,53.1,37.0,55,29.25,10.0,NNE,13.8,21.9,N/A,,Mostly Cloudy,20,2013-09-30 11:53:00
4:53 AM,53.1,36.0,52,29.27,10.0,NNE,13.8,19.6,N/A,,Overcast,20,2013-09-30 12:53:00
5:53 AM,53.1,36.0,52,29.29,10.0,NNE,15.0,20.7,N/A,,Scattered Clouds,20,2013-09-30 13:53:00
6:53 AM,53.1,36.0,52,29.30,10.0,NNE,13.8,18.4,N/A,,Overcast,20,2013-09-30 14:53:00
7:53 AM,53.1,36.0,52,29.32,10.0,NNE,11.5,21.9,N/A,,Overcast,20,2013-09-30 15:53:00
8:53 AM,54.0,36.0,51,29.34,10.0,NNE,12.7,-,N/A,,Overcast,20,2013-09-30 16:53:00
9:53 AM,55.0,37.0,51,29.37,10.0,NNE,10.4,-,N/A,,Overcast,20,2013-09-30 17:53:00
10:53 AM,57.0,36.0,45,29.37,10.0,NE,13.8,-,N/A,,Mostly Cloudy,40,2013-09-30 18:53:00
11:53 AM,57.0,36.0,45,29.39,10.0,NE,16.1,23.0,N/A,,Partly Cloudy,40,2013-09-30 19:53:00
12:53 PM,57.0,37.0,47,29.40,10.0,NNE,15.0,-,N/A,,Partly Cloudy,30,2013-09-30 20:53:00
1:53 PM,57.9,37.0,46,29.42,10.0,NNE,10.4,-,N/A,,Overcast,20,2013-09-30 21:53:00
2:53 PM,57.0,37.0,47,29.43,10.0,NNE,10.4,-,N/A,,Overcast,30,2013-09-30 22:53:00
3:53 PM,57.9,37.0,46,29.43,10.0,NNE,10.4,18.4,N/A,,Mostly Cloudy,30,2013-09-30 23:53:00
4:53 PM,57.9,36.0,44,29.43,10.0,NNE,11.5,18.4,N/A,,Scattered Clouds,20,2013-10-01 00:53:00
5:53 PM,57.0,36.0,45,29.44,10.0,North,9.2,17.3,N/A,,Scattered Clouds,10,2013-10-01 01:53:00
6:53 PM,57.0,36.0,45,29.45,10.0,North,9.2,-,N/A,,Overcast,10,2013-10-01 02:53:00
7:53 PM,55.9,37.0,49,29.48,10.0,NNE,5.8,-,N/A,,Overcast,30,2013-10-01 03:53:00
8:53 PM,57.0,36.0,45,29.47,10.0,North,8.1,17.3,N/A,,Overcast,10,2013-10-01 04:53:00
9:53 PM,55.9,37.0,49,29.48,10.0,NNE,8.1,-,N/A,,Mostly Cloudy,20,2013-10-01 05:53:00
10:53 PM,54.0,37.0,53,29.49,10.0,Calm,Calm,-,N/A,,Overcast,0,2013-10-01 06:53:00
11:53 PM,55.9,35.1,45,29.50,10.0,NNE,9.2,-,N/A,,Overcast,30,2013-10-01 07:53:00